Flag for Switzerland Weather past 2 weeks in Spiez, Bern, Switzerland

Now
61 °F

Clear.


Feels Like: 61 °F
Forecast: 63 / 87 °F
Wind: 2 mph from North

Location: Bern / Belp

Current Time: Aug 4, 2015 at 7:27:43 AM

Latest Report: Aug 4, 2015 at 6:50 AM


Visibility: 10 mi

Pressure: 30.01 "Hg (27.93 "Hg at 607m altitude)

Humidity: 94%

Dew point: 59 °F

Location of SpiezLocation

Historic Weather in Spiez — Graph

°F

Spiez temperature yesterday

Maximum temperature yesterday: 88 °F (at 6:20 PM)
Minimum temperature yesterday: 55 °F (at 5:20 AM)
Average temperature yesterday: 71 °F

Past Weeks' High & Low Weather Summary

 TemperatureHumidityPressure
High93 °F (Jul 21, 3:20 PM)100% (Jul 20, 6:20 AM)30.12 "Hg (Jul 20, 6:20 AM)
Low45 °F (Jul 31, 4:50 AM)30% (Jul 21, 3:50 PM)29.74 "Hg (Jul 24, 5:20 PM)
Average67 °F73%29.98 "Hg
* Reported Jul 20 6:20 AM — Aug 4 6:20 AM, Spiez, Weather by CustomWeather, © 2015

Note: Actual official high and low records may vary slightly from our data, if they occured in-between our weather recording intervals... More about our weather records

Advertising

Spiez weather history for previous 24 hours

 ConditionsComfort  
Time TempWeatherWind HumidityBarometerVisibility
6:20 AM
Tue, Aug 4
59 °FClear.1 mph100%30.01 "Hg10 mi
5:50 AM59 °FClear.1 mph100%30.01 "Hg10 mi
5:20 AM59 °FClear.1 mph100%30.01 "Hg10 mi
4:50 AM59 °FClear.1 mph100%30.01 "Hg10 mi
4:20 AM61 °FClear.2 mph94%30.01 "Hg10 mi
3:50 AM61 °FClear.6 mph94%30.01 "Hg10 mi
3:20 AM61 °FClear.6 mph94%30.01 "Hg10 mi
2:50 AM61 °FClear.3 mph100%30.01 "Hg10 mi
2:20 AM59 °FClear.2 mph100%30.04 "Hg10 mi
1:50 AM61 °FClear.1 mph94%30.04 "Hg10 mi
1:20 AM63 °FClear.1 mph94%30.04 "Hg10 mi
12:50 AM63 °FClear.2 mph94%30.04 "Hg10 mi
12:20 AM63 °FClear.2 mph94%30.01 "Hg10 mi
11:20 PM
Mon, Aug 3
64 °FClear.6 mph88%30.01 "Hg10 mi
10:50 PM64 °FClear.6 mph94%30.01 "Hg10 mi
10:20 PM66 °FClear.3 mph88%30.01 "Hg10 mi
9:50 PM68 °FSunny.2 mph83%30.01 "Hg10 mi
9:20 PM72 °FSunny.2 mph73%30.01 "Hg10 mi
8:50 PM73 °FSunny.No wind74%30.01 "Hg10 mi
8:20 PM79 °FSunny.No wind51%30.01 "Hg10 mi
7:50 PM82 °FPassing clouds.5 mph45%30.01 "HgN/A
7:20 PM88 °FPassing clouds.3 mph40%30.04 "HgN/A
6:50 PM88 °FSunny.2 mph33%30.04 "Hg10 mi
6:20 PM88 °FPassing clouds.6 mph31%30.04 "HgN/A
5:50 PM86 °FPassing clouds.5 mph33%30.04 "HgN/A
5:20 PM86 °FPassing clouds.6 mph38%30.04 "HgN/A
4:50 PM86 °FPassing clouds.7 mph40%30.04 "HgN/A
4:20 PM86 °FPassing clouds.9 mph43%30.04 "HgN/A
3:50 PM86 °FPassing clouds.7 mph43%30.07 "HgN/A
3:20 PM84 °FSunny.3 mph40%30.07 "Hg10 mi
2:50 PM82 °FPassing clouds.6 mph42%30.07 "HgN/A
2:20 PM82 °FSunny.3 mph45%30.07 "Hg10 mi
1:50 PM82 °FPassing clouds.6 mph48%30.09 "HgN/A
1:20 PM81 °FPassing clouds.3 mph54%30.09 "HgN/A
12:50 PM79 °FPassing clouds.3 mph58%30.09 "HgN/A
12:20 PM79 °FPassing clouds.7 mph61%30.09 "HgN/A
11:50 AM77 °FSunny.6 mph65%30.09 "Hg10 mi
11:20 AM75 °FSunny.2 mph65%30.12 "Hg10 mi
10:50 AM75 °FSunny.2 mph65%30.12 "Hg10 mi
10:20 AM72 °FSunny.1 mph69%30.12 "Hg10 mi
9:50 AM72 °FSunny.2 mph69%30.12 "Hg10 mi
9:20 AM70 °FSunny.3 mph73%30.12 "Hg10 mi
8:50 AM68 °FSunny.5 mph83%30.12 "Hg10 mi
8:20 AM66 °FSunny.2 mph83%30.09 "Hg10 mi
7:50 AM63 °FSunny.3 mph94%30.09 "Hg10 mi
7:20 AM59 °FSunny.2 mph100%30.09 "Hg10 mi
Weather by CustomWeather, © 2015

See weather overviewHow to use our weather pages